Regional Weather Roundup
Issued by NWS

Home | Current Version | Previous Version | Text Only | Print | Product List | Glossary On
Versions: 1 2 3 4 5 6 7 8 9 10 11 12 13 14 15 16 17 18 19 20 21 22 23 24 25 26 27 28 29 30 31 32 33 34 35 36 37 38 39 40 41 42 43 44 45 46 47 48 49 50
000
ASUS43 KLSX 291910
RWRMO

WEATHER SUMMARY FOR MISSOURI
NATIONAL WEATHER SERVICE SPRINGFIELD MO
200 PM CDT FRI APR 29 2016

NOTE: "FAIR" INDICATES FEW OR NO CLOUDS BELOW 12,000 FEET WITH NO
       SIGNIFICANT WEATHER AND/OR OBSTRUCTIONS TO VISIBILITY.
       CURRENT SKY AND/OR WEATHER CONDITIONS ARE NOT AVAILABLE FOR
       CHILLICOTHE AND FARMINGTON.

MOZ001>031-035>038-043-044-053-054-292000-
...NORTHERN AND WESTERN MISSOURI...

CITY           SKY/WX    TMP DP  RH WIND       PRES   REMARKS
KANSAS CTY INT CLOUDY    54  47  77 NE20      29.97F
KANSAS C DTWN  CLOUDY    58  48  69 NE20G25   29.96F
LEE`S SUMMIT   CLOUDY    56  47  71 E18       29.96F
ST JOSEPH      CLOUDY    53  45  74 E12       30.01F
CHILLICOTHE      N/A     56  47  71 NE10      30.04F
KIRKSVILLE     CLOUDY    53  45  74 E8        30.07S

$$
MOZ066>068-077>081-088>096-101>105-292000-
...SOUTHWEST MISSOURI...

CITY           SKY/WX    TMP DP  RH WIND       PRES   REMARKS
SPRINGFIELD    CLOUDY    63  53  70 E14       29.90F
JOPLIN         CLOUDY    67  56  67 E16G23    29.84F
BRANSON        CLOUDY    55  55 100 E14       29.90F

$$
MOZ032>034-039>042-045>050-055>058-069>072-292000-
...CENTRAL MISSOURI...

CITY           SKY/WX    TMP DP  RH WIND       PRES   REMARKS
COLUMBIA       PTSUNNY   64  52  64 E7        30.00F
JEFFERSON CITY CLOUDY    61  49  64 E12       30.01R
ROLLA          CLOUDY    58  51  78 E12       29.98R
SEDALIA        CLOUDY    61  51  70 E14       29.97F
WHITEMAN AFB   CLOUDY    60  52  75 E9G18     29.95F
WARRENSBURG    CLOUDY    59  50  72 NE12G18   29.96F
OSAGE BEACH    CLOUDY    59  45  58 E10       29.98F

$$
MOZ051-052-059>065-292000-
...EAST CENTRAL MISSOURI...

CITY           SKY/WX    TMP DP  RH WIND       PRES   REMARKS
ST LOUIS INTL  CLOUDY    63  49  60 E10       30.03F
SPIRIT OF STL  CLOUDY    62  51  67 E7        30.02F
ST CHARLES     CLOUDY    62  52  69 E9        30.03F

$$
MOZ072>076-082>087-097>100-106>115-292000-
...SOUTH CENTRAL AND SOUTHEAST MISSOURI...

CITY           SKY/WX    TMP DP  RH WIND       PRES   REMARKS
CAPE GIRARDEAU LGT RAIN  60  56  86 CALM      30.05S
FARMINGTON     LGT RAIN  58  53  84 SE7       30.03F
POPLAR BLUFF   LGT RAIN  57  54  89 E12       29.96F
WEST PLAINS    CLOUDY    58  53  84 E10G22    29.94R

$$




USA.gov is the U.S. government's official web portal to all federal, state and local government web resources and services.